Home   Weather   Namur   Past weeks

Flag for Belgium Past Weather in Namur, Belgium — Yesterday and Last 2 Weeks

39 °F


Feels Like: 37 °F
Forecast: 39 / 54 °F
Wind: 3 mph from Northeast

Location: Charleroi / Gosselies

Current Time: Oct 23, 2016 at 1:43:24 AM

Latest Report: Oct 23, 2016 at 12:50 AM

Visibility: 2 mi

Pressure: 29.95 "Hg

Humidity: 93%

Dew Point: 37 °F

Location of NamurLocation

Past Weather in Namur — Graph


Namur Temperature Yesterday

Maximum temperature yesterday: 52 °F (at 1:50 PM)
Minimum temperature yesterday: 39 °F (at 11:50 PM)
Average temperature yesterday: 46 °F

High & Low Weather Summary for the Past Weeks

High66 °F (Oct 16, 2:50 PM)100% (Oct 10, 9:20 PM)30.30 "Hg (Oct 10, 9:20 PM)
Low37 °F (Oct 11, 7:20 AM)41% (Oct 8, 5:20 PM)29.62 "Hg (Oct 15, 1:20 AM)
Average48 °F83%30.05 "Hg
* Reported Oct 7 11:20 PM — Oct 22 11:50 PM, Namur, Weather by CustomWeather, © 2016

Note: Actual official high and low records may vary slightly from our data, if they occured in-between our weather recording intervals... More about our weather records


Namur Weather History for the Previous 24 Hours

Scroll right to see more
Time TempWeatherWind HumidityBarometerVisibility
11:50 PM
Sat, Oct 22
39 °FFog.5 mph93%29.95 "Hg2 mi
11:20 PM41 °FPassing clouds.6 mph93%29.95 "Hg4 mi
10:50 PM45 °FPassing clouds.5 mph87%29.95 "Hg4 mi
10:20 PM45 °FPartly cloudy.6 mph93%29.95 "Hg4 mi
9:50 PM45 °FPartly cloudy.5 mph93%29.95 "Hg4 mi
9:20 PM45 °FPassing clouds.3 mph93%29.95 "Hg4 mi
8:50 PM45 °FPassing clouds.3 mph93%29.95 "Hg4 mi
8:20 PM45 °FPassing clouds.5 mph93%29.95 "Hg6 mi
7:50 PM46 °FPassing clouds.7 mph87%29.95 "Hg6 mi
7:20 PM46 °FPassing clouds.7 mph93%29.95 "Hg4 mi
6:50 PM46 °FPassing clouds.6 mph93%29.95 "Hg4 mi
6:20 PM48 °FPartly sunny.3 mph94%29.95 "Hg4 mi
5:50 PM48 °FPassing clouds.3 mph87%29.95 "Hg5 mi
5:20 PM48 °FPassing clouds.2 mph94%29.92 "Hg6 mi
4:50 PM48 °FPassing clouds.1 mph94%29.95 "Hg6 mi
4:20 PM50 °FBroken clouds.2 mph88%29.95 "HgN/A
3:50 PM50 °FSprinkles. Broken clouds.2 mph82%29.95 "Hg6 mi
3:20 PM50 °FSprinkles. Broken clouds.2 mph82%29.95 "HgN/A
2:50 PM50 °FBroken clouds.3 mph76%29.95 "HgN/A
2:20 PM52 °FScattered clouds.6 mph77%29.95 "HgN/A
1:50 PM52 °FScattered clouds.6 mph77%29.95 "HgN/A
1:20 PM50 °FPartly sunny.3 mph82%29.95 "HgN/A
12:50 PM50 °FScattered clouds.3 mph82%29.95 "HgN/A
12:20 PM48 °FScattered clouds.3 mph87%29.95 "HgN/A
11:50 AM46 °FPartly sunny.2 mph87%29.95 "Hg5 mi
11:20 AM45 °FFog.5 mph100%29.95 "Hg2 mi
10:50 AM45 °FFog.3 mph100%29.95 "Hg1 mi
10:20 AM45 °FFog.3 mph93%29.95 "Hg1 mi
9:50 AM45 °FFog.5 mph93%29.95 "Hg1 mi
9:20 AM45 °FFog.8 mph93%29.95 "Hg1 mi
8:50 AM43 °FFog.7 mph93%29.95 "Hg1 mi
8:20 AM43 °FFog.7 mph93%29.95 "Hg0 mi
7:50 AM43 °FLight rain. Fog.8 mph93%29.95 "Hg1 mi
7:20 AM43 °FFog.9 mph93%29.95 "Hg1 mi
6:50 AM43 °FFog.7 mph93%29.95 "Hg1 mi
6:20 AM43 °FFog.8 mph93%29.95 "Hg0 mi
5:50 AM43 °FFog.8 mph100%29.95 "Hg0 mi
5:20 AM43 °FFog.9 mph100%29.95 "Hg1 mi
4:50 AM45 °FFog.8 mph93%29.95 "Hg3 mi
4:20 AM43 °FFog.5 mph100%29.95 "Hg0 mi
3:50 AM45 °FFog.7 mph93%29.98 "Hg0 mi
3:20 AM43 °FFog.7 mph100%29.98 "Hg0 mi
2:50 AM43 °FFog.7 mph100%29.98 "Hg0 mi
1:50 AM45 °FFog.8 mph93%29.98 "Hg1 mi
1:20 AM45 °FFog.8 mph93%29.98 "Hg2 mi
Weather by CustomWeather, © 2016

See weather overviewHow to use our weather pages